Content
SEND FEEDBACK

Daily
Averages
Monthly
Summary
Mexico

COZUMEL, QUINTANA ROO


Home > North America > Mexico > Quintana Roo
Elevation: 15 feet     Latitude: 20 31N     Longitude: 086 56W

WEATHER
 
SELECT A DAY
Number of Records: 127,984;   Date Range: 1/1/95 - 11/22/14
 
SHARE

PRINT THIS DATA

[ ← Previous Day ]
WEATHER ALMANAC - DECEMBER 9, 2013
[ Next Day → ]
[ °C ]   °F
Weather ElementAverageHighLow
Temperature71.9 °F82.4 °F (12:52 pm)62.6 °F (1:44 am)
Dewpoint68.5 °F73.4 °F (8:52 am)62.6 °F (1:44 am)
Humidity90.1 %100 % (1:44 am)66 % (12:52 pm)
Barometer30.03 in30.11 in (8:52 am)29.98 in (1:44 pm)
Wind Speed4.6 mph11.5 mph (1:44 pm)
Weather ElementAverage
Visibility7.5 mi
Wind DirectionENE (78.7 °)

Weather ElementTotal
Precipitation---
Cooling Degree Days7.5 (Base 65)
Growing Degree Days22.5 (Base 50)
Averaged from 23 records on December 9, 2013
WEATHER CONDITIONS BREAKOUT
WIND DIRECTION BREAKOUT
WEATHER BY HOUR - DECEMBER 9, 2013
[ °C ]   °F
Local TimeTemperatureDewpointHumidityBarometerVisibilityWind DirectionWind SpeedGust SpeedPrecipitationEventsConditions
1:44 AM62.6 °F62.6 °F100 %30.02 in7.0 miCalmClear
2:43 AM62.6 °F62.6 °F100 %30.03 in7.0 miCalmPartly Cloudy
3:41 AM62.6 °F62.6 °F100 %30.00 in7.0 miCalmPartly Cloudy
4:55 AM64.4 °F64.4 °F100 %30.01 in7.0 miCalmPartly Cloudy
5:58 AM64.4 °F64.4 °F100 %30.05 in7.0 miCalmPartly Cloudy
6:44 AM64.4 °F64.4 °F100 %30.04 in7.0 miCalmScattered Clouds
7:43 AM71.6 °F71.6 °F100 %30.05 in8.0 miCalmScattered Clouds
8:52 AM75.2 °F73.4 °F94 %30.11 in8.0 miEast (100°)3.5 mphScattered Clouds
9:44 AM78.8 °F73.4 °F83 %30.07 in8.0 miSE (130°)10.4 mphMostly Cloudy
10:48 AM80.6 °F71.6 °F74 %30.05 in8.0 miSE (140°)9.2 mphMostly Cloudy
11:53 AM80.6 °F71.6 °F74 %30.01 in8.0 miSE (130°)10.4 mphMostly Cloudy
12:52 PM82.4 °F69.8 °F66 %29.99 in8.0 miSE (140°)5.8 mphMostly Cloudy
1:44 PM82.4 °F71.6 °F70 %29.98 in8.0 miESE (110°)11.5 mphScattered Clouds
2:45 PM80.6 °F71.6 °F74 %29.99 in8.0 miESE (120°)9.2 mphScattered Clouds
3:42 PM78.8 °F71.6 °F78 %29.98 in8.0 miESE (110°)10.4 mphScattered Clouds
4:44 PM75.2 °F71.6 °F89 %29.99 in8.0 miEast (100°)4.6 mphPartly Cloudy
5:46 PM73.4 °F69.8 °F88 %30.00 in8.0 miEast (100°)3.5 mphPartly Cloudy
6:42 PM69.8 °F68.0 °F94 %30.02 in7.0 miESE (110°)5.8 mphClear
7:43 PM69.8 °F68.0 °F94 %30.04 in7.0 miEast (90°)4.6 mphClear
8:41 PM69.8 °F68.0 °F94 %30.08 in7.0 miESE (110°)5.8 mphClear
9:44 PM68.0 °F68.0 °F100 %30.05 in7.0 miESE (110°)3.5 mphClear
10:48 PM68.0 °F68.0 °F100 %30.05 in7.0 miESE (110°)3.5 mphClear
11:43 PM68.0 °F68.0 °F100 %30.02 in7.0 miEast (100°)3.5 mphClear
Hourly data recorded from MMCZ, located miles away from Cozumel, Quintana Roo







STORIES FROM OUR PARTNERS